Time,TemperatureF,DewpointF,PressureIn,WindDirection,WindDirectionDegrees,WindSpeedMPH,WindSpeedGustMPH,Humidity,HourlyPrecipIn,Conditions,Clouds,dailyrainin,SoftwareType,DateUTC
2013-07-15 00:01:00,72.0,70.2,30.30,SW,216,0.0,0.0,94,0.00,,,0.00,meteohub,2013-07-15 04:01:00,
2013-07-15 00:06:00,72.0,70.2,30.30,SW,216,0.0,0.0,94,0.00,,,0.00,meteohub,2013-07-15 04:06:00,
2013-07-15 00:11:00,72.0,70.2,30.30,SW,216,0.0,0.0,94,0.00,,,0.00,meteohub,2013-07-15 04:11:00,
2013-07-15 00:16:00,71.8,70.0,30.29,SW,216,0.0,0.0,94,0.00,,,0.00,meteohub,2013-07-15 04:16:00,
2013-07-15 00:21:00,71.8,70.0,30.30,SW,216,0.0,0.0,94,0.00,,,0.00,meteohub,2013-07-15 04:21:00,
2013-07-15 00:27:00,71.8,70.0,30.29,SW,216,0.0,0.0,94,0.00,,,0.00,meteohub,2013-07-15 04:27:00,
2013-07-15 00:32:00,71.8,70.0,30.29,SW,216,0.0,0.0,94,0.00,,,0.00,meteohub,2013-07-15 04:32:00,
2013-07-15 00:37:00,71.8,70.0,30.29,SW,216,0.0,0.0,94,0.00,,,0.00,meteohub,2013-07-15 04:37:00,
2013-07-15 00:42:00,71.8,70.0,30.29,SW,216,0.0,0.0,94,0.00,,,0.00,meteohub,2013-07-15 04:42:00,
2013-07-15 00:47:00,71.6,69.8,30.29,SW,216,0.0,0.0,94,0.00,,,0.00,meteohub,2013-07-15 04:47:00,
2013-07-15 00:52:00,71.6,69.4,30.29,SW,216,0.0,0.0,93,0.00,,,0.00,meteohub,2013-07-15 04:52:00,
2013-07-15 00:57:00,71.4,69.3,30.29,SW,216,0.0,0.0,93,0.00,,,0.00,meteohub,2013-07-15 04:57:00,
2013-07-15 01:02:00,71.4,69.3,30.29,SW,216,0.0,0.0,93,0.00,,,0.00,meteohub,2013-07-15 05:02:00,
2013-07-15 01:07:00,71.4,69.3,30.29,SW,216,0.0,0.0,93,0.00,,,0.00,meteohub,2013-07-15 05:07:00,
2013-07-15 01:12:00,71.4,69.3,30.29,SW,216,0.0,0.0,93,0.00,,,0.00,meteohub,2013-07-15 05:12:00,
2013-07-15 01:17:00,71.4,69.3,30.29,SW,216,0.0,0.0,93,0.00,,,0.00,meteohub,2013-07-15 05:17:00,
2013-07-15 01:22:00,71.4,69.3,30.29,SW,216,0.0,0.0,93,0.00,,,0.00,meteohub,2013-07-15 05:22:00,
2013-07-15 01:27:00,71.4,69.3,30.29,SW,216,0.0,0.0,93,0.00,,,0.00,meteohub,2013-07-15 05:27:00,
2013-07-15 01:32:00,71.2,69.1,30.29,SW,216,0.0,0.0,93,0.00,,,0.00,meteohub,2013-07-15 05:32:00,
2013-07-15 01:36:00,71.2,69.1,30.29,SW,216,0.0,1.0,93,0.00,,,0.00,meteohub,2013-07-15 05:36:00,
2013-07-15 01:42:00,71.2,69.1,30.29,SW,216,0.0,1.0,93,0.00,,,0.00,meteohub,2013-07-15 05:42:00,
2013-07-15 01:47:00,71.2,69.1,30.29,SW,216,0.0,1.0,93,0.00,,,0.00,meteohub,2013-07-15 05:47:00,
2013-07-15 01:52:00,71.1,68.9,30.29,SW,216,0.0,1.0,93,0.00,,,0.00,meteohub,2013-07-15 05:52:00,
2013-07-15 01:57:00,71.1,68.5,30.29,SW,216,0.0,1.0,92,0.00,,,0.00,meteohub,2013-07-15 05:57:00,
2013-07-15 02:02:00,71.1,68.9,30.29,SW,216,0.0,1.0,93,0.00,,,0.00,meteohub,2013-07-15 06:02:00,
2013-07-15 02:07:00,71.1,68.5,30.28,SW,216,0.0,1.0,92,0.00,,,0.00,meteohub,2013-07-15 06:07:00,
2013-07-15 02:12:00,71.1,68.9,30.29,SW,216,0.0,1.0,93,0.00,,,0.00,meteohub,2013-07-15 06:12:00,
2013-07-15 02:17:00,71.1,68.4,30.29,SW,216,0.0,1.0,91,0.00,,,0.00,meteohub,2013-07-15 06:17:00,
2013-07-15 02:22:00,71.1,68.5,30.29,SW,216,0.0,1.0,92,0.00,,,0.00,meteohub,2013-07-15 06:22:00,
2013-07-15 02:27:00,71.1,68.4,30.28,SW,216,1.0,1.0,91,0.00,,,0.00,meteohub,2013-07-15 06:27:00,
2013-07-15 02:32:00,71.1,68.4,30.28,SW,216,0.0,1.0,91,0.00,,,0.00,meteohub,2013-07-15 06:32:00,
2013-07-15 02:37:00,71.1,68.4,30.28,SW,216,0.0,1.0,91,0.00,,,0.00,meteohub,2013-07-15 06:37:00,
2013-07-15 02:42:00,71.1,68.4,30.28,SW,216,0.0,1.0,91,0.00,,,0.00,meteohub,2013-07-15 06:42:00,
2013-07-15 02:47:00,71.1,68.4,30.28,SW,216,0.0,1.0,91,0.00,,,0.00,meteohub,2013-07-15 06:47:00,
2013-07-15 02:52:00,70.9,68.2,30.28,SW,216,0.0,0.0,91,0.00,,,0.00,meteohub,2013-07-15 06:52:00,
2013-07-15 02:57:00,70.9,68.2,30.28,SW,216,0.0,1.0,91,0.00,,,0.00,meteohub,2013-07-15 06:57:00,
2013-07-15 03:02:00,70.9,68.2,30.28,SW,216,0.0,1.0,91,0.00,,,0.00,meteohub,2013-07-15 07:02:00,
2013-07-15 03:07:00,70.7,68.2,30.28,SW,216,0.0,1.0,92,0.00,,,0.00,meteohub,2013-07-15 07:07:00,
2013-07-15 03:12:00,70.7,68.2,30.28,SW,216,0.0,1.0,92,0.00,,,0.00,meteohub,2013-07-15 07:12:00,
2013-07-15 03:17:00,70.5,68.0,30.29,SW,216,0.0,0.0,92,0.00,,,0.00,meteohub,2013-07-15 07:17:00,
2013-07-15 03:22:00,70.5,68.0,30.29,SW,216,0.0,0.0,92,0.00,,,0.00,meteohub,2013-07-15 07:22:00,
2013-07-15 03:27:00,70.5,68.0,30.29,SW,216,0.0,0.0,92,0.00,,,0.00,meteohub,2013-07-15 07:27:00,
2013-07-15 03:32:00,70.3,67.8,30.29,SW,216,0.0,0.0,92,0.00,,,0.00,meteohub,2013-07-15 07:32:00,
2013-07-15 03:37:00,70.2,67.6,30.29,SW,216,1.0,1.0,92,0.00,,,0.00,meteohub,2013-07-15 07:37:00,
2013-07-15 03:42:00,70.0,67.5,30.29,SW,216,0.0,1.0,92,0.00,,,0.00,meteohub,2013-07-15 07:42:00,
2013-07-15 03:47:00,70.0,67.5,30.29,SW,216,0.0,1.0,92,0.00,,,0.00,meteohub,2013-07-15 07:47:00,
2013-07-15 03:52:00,69.6,67.5,30.29,SW,216,0.0,1.0,93,0.00,,,0.00,meteohub,2013-07-15 07:52:00,
2013-07-15 03:57:00,69.6,67.5,30.29,SW,216,0.0,1.0,93,0.00,,,0.00,meteohub,2013-07-15 07:57:00,
2013-07-15 04:02:00,69.4,67.3,30.29,SW,216,0.0,1.0,93,0.00,,,0.00,meteohub,2013-07-15 08:02:00,
2013-07-15 04:07:00,69.4,67.6,30.29,SW,216,0.0,1.0,94,0.00,,,0.00,meteohub,2013-07-15 08:07:00,
2013-07-15 04:12:00,69.4,67.6,30.29,SW,216,0.0,1.0,94,0.00,,,0.00,meteohub,2013-07-15 08:12:00,
2013-07-15 04:17:00,69.3,67.5,30.29,SW,216,1.0,1.0,94,0.00,,,0.00,meteohub,2013-07-15 08:17:00,
2013-07-15 04:22:00,69.3,67.5,30.29,SW,216,1.0,1.0,94,0.00,,,0.00,meteohub,2013-07-15 08:22:00,
2013-07-15 04:27:00,69.1,67.3,30.29,SW,216,1.0,1.0,94,0.00,,,0.00,meteohub,2013-07-15 08:27:00,
2013-07-15 04:32:00,69.1,67.6,30.29,SW,216,0.0,1.0,95,0.00,,,0.00,meteohub,2013-07-15 08:32:00,
2013-07-15 04:37:00,68.7,67.3,30.29,SW,216,0.0,1.0,95,0.00,,,0.00,meteohub,2013-07-15 08:37:00,
2013-07-15 04:42:00,68.7,67.3,30.29,SW,216,0.0,1.0,95,0.00,,,0.00,meteohub,2013-07-15 08:42:00,
2013-07-15 04:47:00,68.7,67.3,30.29,SW,216,0.0,1.0,95,0.00,,,0.00,meteohub,2013-07-15 08:47:00,
2013-07-15 04:52:00,68.5,67.1,30.29,SW,216,0.0,1.0,95,0.00,,,0.00,meteohub,2013-07-15 08:52:00,
2013-07-15 04:57:00,68.5,67.1,30.29,SW,216,0.0,0.0,95,0.00,,,0.00,meteohub,2013-07-15 08:57:00,
2013-07-15 05:02:00,68.5,67.1,30.29,SW,216,1.0,1.0,95,0.00,,,0.00,meteohub,2013-07-15 09:02:00,
2013-07-15 05:07:00,68.4,66.9,30.29,SW,216,1.0,1.0,95,0.00,,,0.00,meteohub,2013-07-15 09:07:00,
2013-07-15 05:12:00,68.4,67.1,30.28,SW,216,0.0,1.0,96,0.00,,,0.00,meteohub,2013-07-15 09:12:00,
2013-07-15 05:17:00,68.4,67.1,30.29,SW,216,0.0,1.0,96,0.00,,,0.00,meteohub,2013-07-15 09:17:00,
2013-07-15 05:22:00,68.4,67.1,30.28,SW,216,0.0,1.0,96,0.00,,,0.00,meteohub,2013-07-15 09:22:00,
2013-07-15 05:27:00,68.4,67.1,30.29,SW,216,0.0,1.0,96,0.00,,,0.00,meteohub,2013-07-15 09:27:00,
2013-07-15 05:32:00,68.2,66.9,30.29,SW,216,0.0,1.0,96,0.00,,,0.00,meteohub,2013-07-15 09:32:00,
2013-07-15 05:37:00,68.2,66.9,30.29,SW,216,0.0,1.0,96,0.00,,,0.00,meteohub,2013-07-15 09:37:00,
2013-07-15 05:42:00,68.2,66.9,30.28,SW,216,0.0,1.0,96,0.00,,,0.00,meteohub,2013-07-15 09:42:00,
2013-07-15 05:47:00,68.2,66.9,30.29,SW,216,0.0,0.0,96,0.00,,,0.00,meteohub,2013-07-15 09:47:00,
2013-07-15 05:52:00,68.2,66.9,30.29,SW,216,0.0,0.0,96,0.00,,,0.00,meteohub,2013-07-15 09:52:00,
2013-07-15 05:57:00,68.2,66.9,30.29,SW,216,0.0,0.0,96,0.00,,,0.00,meteohub,2013-07-15 09:57:00,
2013-07-15 06:02:00,68.2,66.9,30.29,SW,216,0.0,0.0,96,0.00,,,0.00,meteohub,2013-07-15 10:02:00,
2013-07-15 06:07:00,68.2,66.9,30.29,SW,216,0.0,1.0,96,0.00,,,0.00,meteohub,2013-07-15 10:07:00,
2013-07-15 06:12:00,68.2,66.9,30.29,SW,216,0.0,1.0,96,0.00,,,0.00,meteohub,2013-07-15 10:12:00,
2013-07-15 06:17:00,68.2,66.9,30.29,SW,216,0.0,1.0,96,0.00,,,0.00,meteohub,2013-07-15 10:17:00,
2013-07-15 06:22:00,68.2,67.3,30.29,SW,216,0.0,1.0,97,0.00,,,0.00,meteohub,2013-07-15 10:22:00,
2013-07-15 06:27:00,68.4,67.5,30.29,SW,216,0.0,1.0,97,0.00,,,0.00,meteohub,2013-07-15 10:27:00,
2013-07-15 06:32:00,68.4,67.5,30.29,SW,216,0.0,0.0,97,0.00,,,0.00,meteohub,2013-07-15 10:32:00,
2013-07-15 06:37:00,68.5,67.6,30.29,SW,216,0.0,0.0,97,0.00,,,0.00,meteohub,2013-07-15 10:37:00,
2013-07-15 06:42:00,68.7,67.8,30.29,SW,216,0.0,1.0,97,0.00,,,0.00,meteohub,2013-07-15 10:42:00,
2013-07-15 06:47:00,68.9,68.0,30.29,SW,216,0.0,1.0,97,0.00,,,0.00,meteohub,2013-07-15 10:47:00,
2013-07-15 06:52:00,69.1,68.2,30.29,SW,216,0.0,1.0,97,0.00,,,0.00,meteohub,2013-07-15 10:52:00,
2013-07-15 06:57:00,69.1,68.2,30.29,SW,216,0.0,1.0,97,0.00,,,0.00,meteohub,2013-07-15 10:57:00,
2013-07-15 07:02:00,69.3,68.7,30.29,SW,216,0.0,1.0,98,0.00,,,0.00,meteohub,2013-07-15 11:02:00,
2013-07-15 07:06:00,69.6,69.1,30.29,SW,216,0.0,0.0,98,0.00,,,0.00,meteohub,2013-07-15 11:06:00,
2013-07-15 07:11:00,70.0,69.4,30.29,SW,216,0.0,0.0,98,0.00,,,0.00,meteohub,2013-07-15 11:11:00,
2013-07-15 07:18:00,70.3,69.8,30.29,SW,216,0.0,0.0,98,0.00,,,0.00,meteohub,2013-07-15 11:18:00,
2013-07-15 07:23:00,70.7,70.2,30.30,SW,216,0.0,0.0,98,0.00,,,0.00,meteohub,2013-07-15 11:23:00,
2013-07-15 07:28:00,71.1,70.5,30.30,SW,216,0.0,0.0,98,0.00,,,0.00,meteohub,2013-07-15 11:28:00,
2013-07-15 07:33:00,71.2,70.7,30.30,SW,216,0.0,0.0,98,0.00,,,0.00,meteohub,2013-07-15 11:33:00,
2013-07-15 07:38:00,71.4,70.9,30.30,SW,216,0.0,0.0,98,0.00,,,0.00,meteohub,2013-07-15 11:38:00,
2013-07-15 07:43:00,71.8,71.2,30.30,SW,216,0.0,0.0,98,0.00,,,0.00,meteohub,2013-07-15 11:43:00,
2013-07-15 07:48:00,72.1,71.6,30.30,SW,216,0.0,0.0,98,0.00,,,0.00,meteohub,2013-07-15 11:48:00,
2013-07-15 07:53:00,72.3,71.8,30.30,SW,216,0.0,0.0,98,0.00,,,0.00,meteohub,2013-07-15 11:53:00,
2013-07-15 07:58:00,72.9,72.3,30.30,SW,216,1.0,0.0,98,0.00,,,0.00,meteohub,2013-07-15 11:58:00,
2013-07-15 08:03:00,73.2,72.0,30.30,SW,216,2.0,2.0,96,0.00,,,0.00,meteohub,2013-07-15 12:03:00,
2013-07-15 08:08:00,73.9,72.5,30.29,SW,216,1.0,2.0,95,0.00,,,0.00,meteohub,2013-07-15 12:08:00,
2013-07-15 08:13:00,74.5,72.3,30.30,SW,216,0.0,2.0,93,0.00,,,0.00,meteohub,2013-07-15 12:13:00,
2013-07-15 08:18:00,74.8,72.7,30.30,SW,216,0.0,2.0,93,0.00,,,0.00,meteohub,2013-07-15 12:18:00,
2013-07-15 08:23:00,75.2,72.7,30.30,SW,216,2.0,2.0,92,0.00,,,0.00,meteohub,2013-07-15 12:23:00,
2013-07-15 08:29:00,75.6,72.7,30.30,WSW,242,1.0,2.0,91,0.00,,,0.00,meteohub,2013-07-15 12:29:00,
2013-07-15 08:34:00,75.9,72.5,30.30,WNW,291,1.0,2.0,89,0.00,,,0.00,meteohub,2013-07-15 12:34:00,
2013-07-15 08:39:00,76.3,73.0,30.30,WNW,291,0.0,2.0,90,0.00,,,0.00,meteohub,2013-07-15 12:39:00,
2013-07-15 08:44:00,76.5,73.0,30.30,WNW,291,0.0,2.0,89,0.00,,,0.00,meteohub,2013-07-15 12:44:00,
2013-07-15 08:49:00,76.6,72.9,30.30,WSW,240,2.0,2.0,88,0.00,,,0.00,meteohub,2013-07-15 12:49:00,
2013-07-15 08:54:00,77.2,73.0,30.30,WSW,243,1.0,2.0,87,0.00,,,0.00,meteohub,2013-07-15 12:54:00,
2013-07-15 08:59:00,77.4,73.2,30.30,WNW,293,0.0,2.0,87,0.00,,,0.00,meteohub,2013-07-15 12:59:00,
2013-07-15 09:04:00,77.5,73.0,30.30,West,274,1.0,2.0,86,0.00,,,0.00,meteohub,2013-07-15 13:04:00,
2013-07-15 09:09:00,77.7,73.2,30.30,West,274,0.0,2.0,86,0.00,,,0.00,meteohub,2013-07-15 13:09:00,
2013-07-15 09:14:00,78.1,73.6,30.30,WNW,290,1.0,2.0,86,0.00,,,0.00,meteohub,2013-07-15 13:14:00,
2013-07-15 09:19:00,78.3,73.4,30.29,WNW,290,0.0,2.0,85,0.00,,,0.00,meteohub,2013-07-15 13:19:00,
2013-07-15 09:24:00,78.4,73.2,30.29,WNW,291,1.0,2.0,84,0.00,,,0.00,meteohub,2013-07-15 13:24:00,
2013-07-15 09:29:00,78.6,73.4,30.29,NW,310,1.0,2.0,84,0.00,,,0.00,meteohub,2013-07-15 13:29:00,
2013-07-15 09:34:00,79.0,73.8,30.29,NW,310,1.0,2.0,84,0.00,,,0.00,meteohub,2013-07-15 13:34:00,
2013-07-15 09:39:00,79.3,74.1,30.29,West,267,1.0,2.0,84,0.00,,,0.00,meteohub,2013-07-15 13:39:00,
2013-07-15 09:44:00,79.9,73.6,30.29,West,267,1.0,2.0,81,0.00,,,0.00,meteohub,2013-07-15 13:44:00,
2013-07-15 09:49:00,80.4,74.1,30.29,West,267,1.0,2.0,81,0.00,,,0.00,meteohub,2013-07-15 13:49:00,
2013-07-15 09:54:00,81.0,74.1,30.29,West,267,0.0,2.0,80,0.00,,,0.00,meteohub,2013-07-15 13:54:00,
2013-07-15 09:59:00,81.7,74.8,30.29,West,267,0.0,2.0,80,0.00,,,0.00,meteohub,2013-07-15 13:59:00,
2013-07-15 10:04:00,82.6,75.0,30.29,West,267,1.0,2.0,78,0.00,,,0.00,meteohub,2013-07-15 14:04:00,
2013-07-15 10:09:00,83.5,75.0,30.29,WNW,302,1.0,2.0,76,0.00,,,0.00,meteohub,2013-07-15 14:09:00,
2013-07-15 10:14:00,84.0,73.9,30.29,West,278,1.0,2.0,72,0.00,,,0.00,meteohub,2013-07-15 14:14:00,
2013-07-15 10:19:00,84.6,75.0,30.29,NW,307,0.0,2.0,73,0.00,,,0.00,meteohub,2013-07-15 14:19:00,
2013-07-15 10:24:00,85.3,74.8,30.28,NW,307,1.0,2.0,71,0.00,,,0.00,meteohub,2013-07-15 14:24:00,
2013-07-15 10:29:00,85.3,74.3,30.28,NW,304,0.0,2.0,70,0.00,,,0.00,meteohub,2013-07-15 14:29:00,
2013-07-15 10:34:00,85.6,75.6,30.28,NW,304,1.0,2.0,72,0.00,,,0.00,meteohub,2013-07-15 14:34:00,
2013-07-15 10:39:00,85.5,75.0,30.28,NW,304,0.0,2.0,71,0.00,,,0.00,meteohub,2013-07-15 14:39:00,
2013-07-15 10:44:00,85.6,75.6,30.28,NW,318,1.0,2.0,72,0.00,,,0.00,meteohub,2013-07-15 14:44:00,
2013-07-15 10:49:00,85.6,75.6,30.28,SSW,211,1.0,3.0,72,0.00,,,0.00,meteohub,2013-07-15 14:49:00,
2013-07-15 10:54:00,84.7,74.7,30.28,WSW,249,2.0,3.0,72,0.00,,,0.00,meteohub,2013-07-15 14:54:00,
2013-07-15 10:59:00,84.6,75.4,30.28,WNW,301,1.0,3.0,74,0.00,,,0.00,meteohub,2013-07-15 14:59:00,
2013-07-15 11:04:00,85.5,75.0,30.28,NW,307,0.0,2.0,71,0.00,,,0.00,meteohub,2013-07-15 15:04:00,
2013-07-15 11:09:00,84.9,74.8,30.28,WNW,283,1.0,2.0,72,0.00,,,0.00,meteohub,2013-07-15 15:09:00,
2013-07-15 11:14:00,85.6,74.7,30.28,WNW,283,1.0,2.0,70,0.00,,,0.00,meteohub,2013-07-15 15:14:00,
2013-07-15 11:19:00,85.6,74.7,30.28,SW,225,0.0,2.0,70,0.00,,,0.00,meteohub,2013-07-15 15:19:00,
2013-07-15 11:25:00,85.8,75.4,30.27,NW,304,1.0,2.0,71,0.00,,,0.00,meteohub,2013-07-15 15:25:00,
2013-07-15 11:30:00,85.8,74.5,30.27,NW,304,1.0,2.0,69,0.00,,,0.00,meteohub,2013-07-15 15:30:00,
2013-07-15 11:35:00,85.8,74.5,30.27,SW,229,0.0,2.0,69,0.00,,,0.00,meteohub,2013-07-15 15:35:00,
2013-07-15 11:41:00,86.0,74.1,30.27,NW,304,2.0,2.0,68,0.00,,,0.00,meteohub,2013-07-15 15:41:00,
2013-07-15 11:46:00,85.5,74.5,30.27,WSW,250,1.0,2.0,70,0.00,,,0.00,meteohub,2013-07-15 15:46:00,
2013-07-15 11:51:00,85.3,74.8,30.27,West,260,0.0,2.0,71,0.00,,,0.00,meteohub,2013-07-15 15:51:00,
2013-07-15 11:56:00,86.4,76.3,30.27,NW,309,1.0,2.0,72,0.00,,,0.00,meteohub,2013-07-15 15:56:00,
2013-07-15 12:01:00,86.7,74.5,30.27,WNW,301,0.0,3.0,67,0.00,,,0.00,meteohub,2013-07-15 16:01:00,
2013-07-15 12:06:00,86.2,74.8,30.27,WNW,282,1.0,3.0,69,0.00,,,0.00,meteohub,2013-07-15 16:06:00,
2013-07-15 12:11:00,85.5,74.5,30.26,WSW,240,2.0,3.0,70,0.00,,,0.00,meteohub,2013-07-15 16:11:00,
2013-07-15 12:17:00,85.8,74.5,30.27,WNW,302,0.0,3.0,69,0.00,,,0.00,meteohub,2013-07-15 16:17:00,
2013-07-15 12:22:00,85.8,73.6,30.27,NW,311,0.0,3.0,67,0.00,,,0.00,meteohub,2013-07-15 16:22:00,
2013-07-15 12:27:00,86.5,74.7,30.26,NW,306,2.0,3.0,68,0.00,,,0.00,meteohub,2013-07-15 16:27:00,
2013-07-15 12:32:00,86.9,75.9,30.26,WNW,302,1.0,3.0,70,0.00,,,0.00,meteohub,2013-07-15 16:32:00,
2013-07-15 12:37:00,86.5,74.7,30.26,WSW,251,1.0,2.0,68,0.00,,,0.00,meteohub,2013-07-15 16:37:00,
2013-07-15 12:42:00,87.1,74.8,30.26,NW,313,1.0,3.0,67,0.00,,,0.00,meteohub,2013-07-15 16:42:00,
2013-07-15 12:47:00,87.3,75.0,30.26,NW,306,1.0,3.0,67,0.00,,,0.00,meteohub,2013-07-15 16:47:00,
2013-07-15 12:52:00,86.5,75.2,30.25,NW,306,1.0,3.0,69,0.00,,,0.00,meteohub,2013-07-15 16:52:00,
2013-07-15 12:57:00,86.7,75.7,30.25,WNW,298,2.0,3.0,70,0.00,,,0.00,meteohub,2013-07-15 16:57:00,
2013-07-15 13:02:00,86.7,74.8,30.25,NNW,333,1.0,2.0,68,0.00,,,0.00,meteohub,2013-07-15 17:02:00,
2013-07-15 13:07:00,86.7,74.8,30.25,NW,317,0.0,2.0,68,0.00,,,0.00,meteohub,2013-07-15 17:07:00,
2013-07-15 13:12:00,86.5,74.7,30.25,WNW,284,2.0,2.0,68,0.00,,,0.00,meteohub,2013-07-15 17:12:00,
2013-07-15 13:17:00,86.4,75.0,30.25,NW,311,1.0,2.0,69,0.00,,,0.00,meteohub,2013-07-15 17:17:00,
2013-07-15 13:22:00,86.4,75.9,30.25,West,263,1.0,2.0,71,0.00,,,0.00,meteohub,2013-07-15 17:22:00,
2013-07-15 13:27:00,86.4,75.4,30.24,NW,304,0.0,2.0,70,0.00,,,0.00,meteohub,2013-07-15 17:27:00,
2013-07-15 13:32:00,86.4,75.4,30.24,NW,311,0.0,2.0,70,0.00,,,0.00,meteohub,2013-07-15 17:32:00,
2013-07-15 13:37:00,86.5,74.7,30.24,WNW,288,0.0,2.0,68,0.00,,,0.00,meteohub,2013-07-15 17:37:00,
2013-07-15 13:42:00,86.7,76.6,30.24,NNE,27,2.0,3.0,72,0.00,,,0.00,meteohub,2013-07-15 17:42:00,
2013-07-15 13:47:00,86.7,74.8,30.24,NNE,27,0.0,3.0,68,0.00,,,0.00,meteohub,2013-07-15 17:47:00,
2013-07-15 13:52:00,86.5,75.2,30.24,WSW,257,0.0,3.0,69,0.00,,,0.00,meteohub,2013-07-15 17:52:00,
2013-07-15 13:58:00,86.5,74.7,30.24,NW,313,1.0,3.0,68,0.00,,,0.00,meteohub,2013-07-15 17:58:00,
2013-07-15 14:03:00,86.7,73.9,30.24,NW,317,0.0,3.0,66,0.00,,,0.00,meteohub,2013-07-15 18:03:00,
2013-07-15 14:08:00,86.7,74.8,30.24,WNW,286,1.0,3.0,68,0.00,,,0.00,meteohub,2013-07-15 18:08:00,
2013-07-15 14:13:00,86.5,74.3,30.23,WSW,248,1.0,3.0,67,0.00,,,0.00,meteohub,2013-07-15 18:13:00,
2013-07-15 14:18:00,86.7,75.7,30.23,WSW,249,0.0,3.0,70,0.00,,,0.00,meteohub,2013-07-15 18:18:00,
2013-07-15 14:23:00,86.7,73.9,30.23,NNW,329,2.0,3.0,66,0.00,,,0.00,meteohub,2013-07-15 18:23:00,
2013-07-15 14:32:00,87.1,73.9,30.23,NNW,329,1.0,2.0,65,0.00,,,0.00,meteohub,2013-07-15 18:32:00,
2013-07-15 14:37:00,87.1,73.9,30.23,NNW,329,1.0,2.0,65,0.00,,,0.00,meteohub,2013-07-15 18:37:00,
2013-07-15 14:42:00,87.3,75.0,30.23,WNW,286,0.0,2.0,67,0.00,,,0.00,meteohub,2013-07-15 18:42:00,
2013-07-15 14:47:00,87.4,74.3,30.23,WNW,300,2.0,2.0,65,0.00,,,0.00,meteohub,2013-07-15 18:47:00,
2013-07-15 14:52:00,88.2,74.5,30.23,WNW,300,1.0,2.0,64,0.00,,,0.00,meteohub,2013-07-15 18:52:00,
2013-07-15 14:57:00,88.3,76.5,30.22,North,351,0.0,2.0,68,0.00,,,0.00,meteohub,2013-07-15 18:57:00,
2013-07-15 15:03:00,88.2,74.5,30.23,WSW,254,2.0,2.0,64,0.00,,,0.00,meteohub,2013-07-15 19:03:00,
2013-07-15 15:08:00,88.2,73.9,30.22,NW,309,1.0,3.0,63,0.00,,,0.00,meteohub,2013-07-15 19:08:00,
2013-07-15 15:13:00,88.2,72.5,30.22,North,0,2.0,4.0,60,0.00,,,0.00,meteohub,2013-07-15 19:13:00,
2013-07-15 15:18:00,88.3,73.2,30.22,NNW,330,2.0,4.0,61,0.00,,,0.00,meteohub,2013-07-15 19:18:00,
2013-07-15 15:23:00,88.3,73.6,30.22,NNW,330,0.0,4.0,62,0.00,,,0.00,meteohub,2013-07-15 19:23:00,
2013-07-15 15:28:00,88.3,74.7,30.22,NNW,329,0.0,3.0,64,0.00,,,0.00,meteohub,2013-07-15 19:28:00,
2013-07-15 15:33:00,88.2,74.8,30.22,NNW,328,0.0,3.0,65,0.00,,,0.00,meteohub,2013-07-15 19:33:00,
2013-07-15 15:38:00,88.2,74.8,30.22,West,269,0.0,2.0,65,0.00,,,0.00,meteohub,2013-07-15 19:38:00,
2013-07-15 15:45:00,88.2,73.9,30.22,WNW,300,1.0,3.0,63,0.00,,,0.00,meteohub,2013-07-15 19:45:00,
2013-07-15 15:50:00,88.3,73.2,30.22,WNW,292,0.0,3.0,61,0.00,,,0.00,meteohub,2013-07-15 19:50:00,
2013-07-15 15:55:00,88.3,73.2,30.21,WNW,292,1.0,2.0,61,0.00,,,0.00,meteohub,2013-07-15 19:55:00,
2013-07-15 16:01:00,88.3,72.7,30.21,WNW,300,1.0,3.0,60,0.00,,,0.00,meteohub,2013-07-15 20:01:00,
2013-07-15 16:06:00,88.3,72.1,30.21,SW,236,2.0,3.0,59,0.00,,,0.00,meteohub,2013-07-15 20:06:00,
2013-07-15 16:12:00,88.0,74.3,30.21,WSW,248,0.0,3.0,64,0.00,,,0.00,meteohub,2013-07-15 20:12:00,
2013-07-15 16:17:00,88.0,73.8,30.21,West,279,1.0,3.0,63,0.00,,,0.00,meteohub,2013-07-15 20:17:00,
2013-07-15 16:22:00,88.0,73.4,30.21,West,279,1.0,3.0,62,0.00,,,0.00,meteohub,2013-07-15 20:22:00,
2013-07-15 16:27:00,88.0,73.4,30.21,West,279,1.0,2.0,62,0.00,,,0.00,meteohub,2013-07-15 20:27:00,
2013-07-15 16:32:00,88.0,73.8,30.20,West,279,2.0,2.0,63,0.00,,,0.00,meteohub,2013-07-15 20:32:00,
2013-07-15 16:37:00,87.8,73.2,30.20,West,279,0.0,2.0,62,0.00,,,0.00,meteohub,2013-07-15 20:37:00,
2013-07-15 16:42:00,87.8,75.4,30.20,SW,236,1.0,2.0,67,0.00,,,0.00,meteohub,2013-07-15 20:42:00,
2013-07-15 16:47:00,87.6,75.4,30.20,WSW,249,1.0,2.0,67,0.00,,,0.00,meteohub,2013-07-15 20:47:00,
2013-07-15 16:52:00,87.4,74.7,30.20,West,280,1.0,2.0,66,0.00,,,0.00,meteohub,2013-07-15 20:52:00,
2013-07-15 16:57:00,87.4,75.6,30.20,SW,235,0.0,2.0,68,0.00,,,0.00,meteohub,2013-07-15 20:57:00,
2013-07-15 17:02:00,87.3,73.6,30.20,West,271,1.0,2.0,64,0.00,,,0.00,meteohub,2013-07-15 21:02:00,
2013-07-15 17:07:00,87.4,73.8,30.19,WNW,297,1.0,2.0,64,0.00,,,0.00,meteohub,2013-07-15 21:07:00,
2013-07-15 17:13:00,87.4,72.9,30.19,WNW,297,1.0,2.0,62,0.00,,,0.00,meteohub,2013-07-15 21:13:00,
2013-07-15 17:18:00,87.4,74.7,30.19,WNW,297,1.0,2.0,66,0.00,,,0.00,meteohub,2013-07-15 21:18:00,
2013-07-15 17:23:00,87.3,74.5,30.19,WNW,297,0.0,2.0,66,0.00,,,0.00,meteohub,2013-07-15 21:23:00,
2013-07-15 17:28:00,87.3,73.6,30.19,WNW,297,0.0,2.0,64,0.00,,,0.00,meteohub,2013-07-15 21:28:00,
2013-07-15 17:34:00,87.3,75.4,30.19,WNW,297,0.0,2.0,68,0.00,,,0.00,meteohub,2013-07-15 21:34:00,
2013-07-15 17:39:00,87.1,72.5,30.19,WSW,258,1.0,2.0,62,0.00,,,0.00,meteohub,2013-07-15 21:39:00,
2013-07-15 17:44:00,87.1,72.9,30.19,West,273,1.0,2.0,63,0.00,,,0.00,meteohub,2013-07-15 21:44:00,
2013-07-15 17:49:00,87.1,73.4,30.19,West,273,0.0,2.0,64,0.00,,,0.00,meteohub,2013-07-15 21:49:00,
2013-07-15 17:54:00,87.1,75.7,30.19,West,273,0.0,2.0,69,0.00,,,0.00,meteohub,2013-07-15 21:54:00,
2013-07-15 17:59:00,87.1,75.7,30.18,West,273,0.0,2.0,69,0.00,,,0.00,meteohub,2013-07-15 21:59:00,
2013-07-15 18:04:00,86.7,73.6,30.18,West,273,1.0,2.0,65,0.00,,,0.00,meteohub,2013-07-15 22:04:00,
2013-07-15 18:09:00,86.7,74.8,30.18,West,273,0.0,2.0,68,0.00,,,0.00,meteohub,2013-07-15 22:09:00,
2013-07-15 18:14:00,86.7,74.8,30.18,West,273,0.0,2.0,68,0.00,,,0.00,meteohub,2013-07-15 22:14:00,
2013-07-15 18:19:00,86.7,76.6,30.18,West,273,0.0,2.0,72,0.00,,,0.00,meteohub,2013-07-15 22:19:00,
2013-07-15 18:24:00,86.4,75.0,30.18,West,273,0.0,2.0,69,0.00,,,0.00,meteohub,2013-07-15 22:24:00,
2013-07-15 18:29:00,86.2,76.5,30.18,West,273,0.0,1.0,73,0.00,,,0.00,meteohub,2013-07-15 22:29:00,
2013-07-15 18:34:00,85.8,74.5,30.18,West,273,0.0,1.0,69,0.00,,,0.00,meteohub,2013-07-15 22:34:00,
2013-07-15 18:39:00,85.6,74.3,30.18,West,273,0.0,1.0,69,0.00,,,0.00,meteohub,2013-07-15 22:39:00,
2013-07-15 18:44:00,85.6,74.7,30.18,West,273,0.0,1.0,70,0.00,,,0.00,meteohub,2013-07-15 22:44:00,
2013-07-15 18:50:00,85.5,74.5,30.18,West,273,0.0,1.0,70,0.00,,,0.00,meteohub,2013-07-15 22:50:00,
2013-07-15 18:55:00,85.5,74.5,30.18,West,273,0.0,1.0,70,0.00,,,0.00,meteohub,2013-07-15 22:55:00,
2013-07-15 19:00:00,85.5,75.4,30.18,West,273,0.0,0.0,72,0.00,,,0.00,meteohub,2013-07-15 23:00:00,
2013-07-15 19:05:00,85.5,75.7,30.18,West,273,0.0,0.0,73,0.00,,,0.00,meteohub,2013-07-15 23:05:00,
2013-07-15 19:10:00,85.3,75.6,30.18,West,273,0.0,0.0,73,0.00,,,0.00,meteohub,2013-07-15 23:10:00,
2013-07-15 19:15:00,84.9,74.8,30.18,West,273,0.0,0.0,72,0.00,,,0.00,meteohub,2013-07-15 23:15:00,
2013-07-15 19:21:00,84.7,75.9,30.18,West,273,1.0,1.0,75,0.00,,,0.00,meteohub,2013-07-15 23:21:00,
2013-07-15 19:27:00,84.7,75.6,30.19,West,273,0.0,2.0,74,0.00,,,0.00,meteohub,2013-07-15 23:27:00,
2013-07-15 19:32:00,84.6,75.4,30.19,West,273,1.0,2.0,74,0.00,,,0.00,meteohub,2013-07-15 23:32:00,
2013-07-15 19:37:00,84.4,74.3,30.19,WNW,300,0.0,2.0,72,0.00,,,0.00,meteohub,2013-07-15 23:37:00,
2013-07-15 19:42:00,84.2,74.1,30.18,WNW,300,1.0,1.0,72,0.00,,,0.00,meteohub,2013-07-15 23:42:00,
2013-07-15 19:47:00,84.0,73.6,30.18,WNW,300,1.0,2.0,71,0.00,,,0.00,meteohub,2013-07-15 23:47:00,
2013-07-15 19:52:00,83.7,73.6,30.18,WNW,300,0.0,2.0,72,0.00,,,0.00,meteohub,2013-07-15 23:52:00,
2013-07-15 19:57:00,83.1,74.3,30.18,WNW,300,1.0,2.0,75,0.00,,,0.00,meteohub,2013-07-15 23:57:00,
2013-07-15 20:02:00,82.6,74.3,30.18,WNW,300,0.0,1.0,76,0.00,,,0.00,meteohub,2013-07-16 00:02:00,
2013-07-15 20:07:00,82.2,74.3,30.18,WNW,300,0.0,1.0,77,0.00,,,0.00,meteohub,2013-07-16 00:07:00,
2013-07-15 20:12:00,81.9,74.3,30.18,WNW,300,0.0,1.0,78,0.00,,,0.00,meteohub,2013-07-16 00:12:00,
2013-07-15 20:17:00,81.5,74.3,30.18,WNW,300,0.0,1.0,79,0.00,,,0.00,meteohub,2013-07-16 00:17:00,
2013-07-15 20:22:00,81.1,74.3,30.18,WNW,300,0.0,1.0,80,0.00,,,0.00,meteohub,2013-07-16 00:22:00,
2013-07-15 20:27:00,80.6,73.4,30.18,WNW,300,0.0,1.0,79,0.00,,,0.00,meteohub,2013-07-16 00:27:00,
2013-07-15 20:32:00,80.2,73.6,30.18,WNW,300,0.0,1.0,80,0.00,,,0.00,meteohub,2013-07-16 00:32:00,
2013-07-15 20:37:00,80.1,74.1,30.18,WNW,300,0.0,1.0,82,0.00,,,0.00,meteohub,2013-07-16 00:37:00,
2013-07-15 20:42:00,79.7,73.4,30.18,WNW,300,0.0,1.0,81,0.00,,,0.00,meteohub,2013-07-16 00:42:00,
2013-07-15 20:47:00,79.3,73.4,30.18,WNW,300,0.0,0.0,82,0.00,,,0.00,meteohub,2013-07-16 00:47:00,
2013-07-15 20:52:00,79.0,73.0,30.18,WNW,300,0.0,0.0,82,0.00,,,0.00,meteohub,2013-07-16 00:52:00,
2013-07-15 20:57:00,78.6,73.0,30.18,WNW,300,0.0,0.0,83,0.00,,,0.00,meteohub,2013-07-16 00:57:00,
2013-07-15 21:02:00,78.3,72.7,30.18,WNW,300,0.0,0.0,83,0.00,,,0.00,meteohub,2013-07-16 01:02:00,
2013-07-15 21:07:00,78.1,72.9,30.18,WNW,300,0.0,0.0,84,0.00,,,0.00,meteohub,2013-07-16 01:07:00,
2013-07-15 21:12:00,77.7,72.9,30.18,WNW,300,0.0,0.0,85,0.00,,,0.00,meteohub,2013-07-16 01:12:00,
2013-07-15 21:17:00,77.5,72.7,30.19,WNW,300,0.0,1.0,85,0.00,,,0.00,meteohub,2013-07-16 01:17:00,
2013-07-15 21:22:00,77.4,72.5,30.19,WNW,300,0.0,1.0,85,0.00,,,0.00,meteohub,2013-07-16 01:22:00,
2013-07-15 21:27:00,77.2,72.7,30.19,WNW,300,0.0,1.0,86,0.00,,,0.00,meteohub,2013-07-16 01:27:00,
2013-07-15 21:32:00,77.0,72.5,30.18,WNW,300,0.0,1.0,86,0.00,,,0.00,meteohub,2013-07-16 01:32:00,
2013-07-15 21:37:00,76.8,72.3,30.19,WNW,300,0.0,0.0,86,0.00,,,0.00,meteohub,2013-07-16 01:37:00,
2013-07-15 21:42:00,76.6,72.5,30.19,WNW,300,0.0,0.0,87,0.00,,,0.00,meteohub,2013-07-16 01:42:00,
2013-07-15 21:47:00,76.6,72.5,30.19,WNW,300,0.0,0.0,87,0.00,,,0.00,meteohub,2013-07-16 01:47:00,
2013-07-15 21:52:00,76.6,72.9,30.19,WNW,300,0.0,0.0,88,0.00,,,0.00,meteohub,2013-07-16 01:52:00,
2013-07-15 21:57:00,76.5,72.3,30.19,WNW,300,0.0,0.0,87,0.00,,,0.00,meteohub,2013-07-16 01:57:00,
2013-07-15 22:02:00,76.3,72.5,30.19,WNW,300,0.0,0.0,88,0.00,,,0.00,meteohub,2013-07-16 02:02:00,
2013-07-15 22:07:00,76.3,72.5,30.19,WNW,300,0.0,0.0,88,0.00,,,0.00,meteohub,2013-07-16 02:07:00,
2013-07-15 22:12:00,76.1,72.3,30.19,WNW,300,0.0,0.0,88,0.00,,,0.00,meteohub,2013-07-16 02:12:00,
2013-07-15 22:17:00,75.9,72.5,30.19,WNW,300,0.0,0.0,89,0.00,,,0.00,meteohub,2013-07-16 02:17:00,
2013-07-15 22:22:00,75.9,72.5,30.19,WNW,300,0.0,0.0,89,0.00,,,0.00,meteohub,2013-07-16 02:22:00,
2013-07-15 22:27:00,75.7,72.3,30.19,WNW,300,0.0,0.0,89,0.00,,,0.00,meteohub,2013-07-16 02:27:00,
2013-07-15 22:32:00,75.7,72.3,30.19,WNW,300,0.0,0.0,89,0.00,,,0.00,meteohub,2013-07-16 02:32:00,
2013-07-15 22:37:00,75.6,72.1,30.19,WNW,300,0.0,0.0,89,0.00,,,0.00,meteohub,2013-07-16 02:37:00,
2013-07-15 22:43:00,75.6,72.5,30.19,WNW,300,0.0,0.0,90,0.00,,,0.00,meteohub,2013-07-16 02:43:00,
2013-07-15 22:48:00,75.4,72.3,30.20,WNW,300,0.0,0.0,90,0.00,,,0.00,meteohub,2013-07-16 02:48:00,
2013-07-15 22:53:00,75.4,72.3,30.20,WNW,300,0.0,0.0,90,0.00,,,0.00,meteohub,2013-07-16 02:53:00,
2013-07-15 22:58:00,75.4,72.3,30.20,WNW,300,0.0,0.0,90,0.00,,,0.00,meteohub,2013-07-16 02:58:00,
2013-07-15 23:03:00,75.0,72.0,30.20,WNW,300,0.0,0.0,90,0.00,,,0.00,meteohub,2013-07-16 03:03:00,
2013-07-15 23:08:00,75.0,72.0,30.20,WNW,300,0.0,0.0,90,0.00,,,0.00,meteohub,2013-07-16 03:08:00,
2013-07-15 23:13:00,74.8,72.0,30.20,WNW,300,0.0,0.0,91,0.00,,,0.00,meteohub,2013-07-16 03:13:00,
2013-07-15 23:18:00,74.8,72.0,30.20,WNW,300,1.0,0.0,91,0.00,,,0.00,meteohub,2013-07-16 03:18:00,
2013-07-15 23:23:00,74.8,72.0,30.20,WNW,300,0.0,1.0,91,0.00,,,0.00,meteohub,2013-07-16 03:23:00,
2013-07-15 23:28:00,74.7,71.8,30.20,WNW,300,0.0,1.0,91,0.00,,,0.00,meteohub,2013-07-16 03:28:00,
2013-07-15 23:33:00,74.7,71.8,30.20,WNW,300,0.0,1.0,91,0.00,,,0.00,meteohub,2013-07-16 03:33:00,
2013-07-15 23:39:00,74.7,71.8,30.20,WNW,300,0.0,1.0,91,0.00,,,0.00,meteohub,2013-07-16 03:39:00,
2013-07-15 23:44:00,74.7,71.8,30.20,WNW,300,0.0,1.0,91,0.00,,,0.00,meteohub,2013-07-16 03:44:00,
2013-07-15 23:49:00,74.7,72.1,30.20,WNW,300,0.0,1.0,92,0.00,,,0.00,meteohub,2013-07-16 03:49:00,
2013-07-15 23:54:00,74.7,71.8,30.20,WNW,300,0.0,1.0,91,0.00,,,0.00,meteohub,2013-07-16 03:54:00,
2013-07-15 23:59:00,74.7,71.8,30.20,WNW,300,0.0,1.0,91,0.00,,,0.00,meteohub,2013-07-16 03:59:00,